Regional Weather Roundup
Issued by NWS

Home | Current Version | Previous Version | Text Only | Print | Product List | Glossary On
Versions: 1 2 3 4 5 6 7 8 9 10 11 12 13 14 15 16 17 18 19 20 21 22 23 24 25 26 27 28
000
ASUS45 KBOU 171710
RWRCO

WEATHER ROUNDUP FOR COLORADO
NATIONAL WEATHER SERVICE DENVER/BOULDER CO
1000 AM MST FRI NOV 17 2017

NOTE: "FAIR" INDICATES FEW OR NO CLOUDS BELOW 12000 FEET WITH NO
SIGNIFICANT WEATHER AND/OR OBSTRUCTIONS TO VISIBILITY.

COZ001>005-013-030-031-171800-
...NORTHWEST COLORADO...

CITY           SKY/WX    TMP DP  RH WIND       PRES   REMARKS
CRAIG          CLOUDY    54  31  41 SW26G43   29.71S
HAYDEN         CLOUDY    53  32  44 SW26G38   29.71F
MEEKER         PTSUNNY   54  32  43 SW22G38   29.75F
RABBIT EARS PA CLOUDY    32  28  86 W12G20    29.82S WCI  23
STEAMBOAT SPGS CLOUDY    51  31  45 SW22G36   29.72F
WALDEN         CLOUDY    43  32  65 SW20G31   29.74F
$$

COZ006>008-011-171800-
...WEST CENTRAL VALLEYS...

CITY           SKY/WX    TMP DP  RH WIND       PRES   REMARKS
GRAND JUNCTION CLOUDY    63  34  33 SW9       29.79R
MONTROSE       FAIR      59  32  36 SW25G33   29.88S
EAGLE          CLOUDY    49  35  58 W9        29.81F
RIFLE          CLOUDY    57  33  40 W13       29.77F
DELTA          CLOUDY    63  32  31 SW25G38   29.83F
NUCLA          FAIR      59  30  33 SW22G32   29.94S
$$

COZ017>023-064>068-171800-
...SOUTHWEST COLORADO...

CITY           SKY/WX    TMP DP  RH WIND       PRES   REMARKS
DURANGO        CLOUDY    49  32  52 W7        30.03F
CORTEZ         CLOUDY    56  32  40 SW18G28   30.00F
PAGOSA SPRINGS DRIZZLE   47  30  53 S7        30.05F
TELLURIDE      PTSUNNY   45  30  54 SW20G45   30.04F
WOLF CREEK PAS CLOUDY    27  27 100 S25G44    30.13F FOG     WCI  11
$$

COZ009-010-012-014-032>034-037-058>063-171800-
...CENTRAL COLORADO...

CITY           SKY/WX    TMP DP  RH WIND       PRES   REMARKS
ASPEN          LGT RAIN  41  38  89 S8        29.85F
BUENA VISTA    LGT RAIN  42  38  84 E6        29.86S
COPPER MTN     CLOUDY    34  30  86 MISG      29.91F
BERTHOUD PASS  LGT SNOW  25  14  63 W35G48    29.89F VSB 3/4 WCI   7
COTTONWOOD PAS LGT SNOW  41  37  87 S3        29.90S
GUNNISON       CLOUDY    50  31  48 W22G31    29.89F
KREMMLING      DRIZZLE   50  36  57 SW22      29.79R
LEADVILLE      SNOW      32  31  96 CALM      29.89S VSB 1/2
MONARCH PASS   CLOUDY    28  28 100 W37G66    30.02R WCI  11
SALIDA         CLOUDY    46  38  76 SW5       29.95F
SUNLIGHT       CLOUDY    32  28  86 SW22G39   29.93F HAZE    WCI  19
WILKERSON PASS FOG       32  30  93 SW9G25    29.96S VSB 1/4 WCI  24
$$

COZ069>075-171800-
...SAN LUIS VALLEY/SANGRE DE CRISTO MOUNTAINS...

CITY           SKY/WX    TMP DP  RH WIND       PRES   REMARKS
ALAMOSA        FAIR      53  33  46 W25G39    29.95F
DEL NORTE      PTSUNNY   53  29  39 SW21G33   29.94F
LA VETA PASS   CLOUDY    36  30  80 S25G46      N/A
SAGUACHE       NOT AVBL
$$

COZ035-036-038>040-171800-
...NORTHERN COLORADO FRONT RANGE...

CITY           SKY/WX    TMP DP  RH WIND       PRES   REMARKS
DENVER INTL AP PTSUNNY   64  32  30 SW23      29.66F
DMNS CITY PARK   N/A     64  31  29 SW17G23   29.67F
AURORA         PTSUNNY   63  33  33 SW17      29.69F
FRONT RANGE AP MOSUNNY   66  32  28 SW22      29.68F
ERIE MUNI ARPT FAIR      64  31  28 SW14G21   29.72F
BOULDER MUN AP FAIR      61  32  33 S9        29.67F
CENTENNIAL     PTSUNNY   62  34  35 SW18      29.71F
BROOMFIELD     PTSUNNY   61  32  33 SW13      29.69F
FORT COLLINS   FAIR      63  36  36 SW10      29.64F
LONGMONT       FAIR      63  33  32 SW16      29.68S
$$

COZ041-046-047-076>085-087-088-171800-
...PIKES PEAK/PALMER DIVIDE AND SOUTHERN FOOTHILLS...

CITY           SKY/WX    TMP DP  RH WIND       PRES   REMARKS
COLO. SPRINGS  FAIR      63  32  31 SW24G30   29.78F
A. F. ACADEMY  FAIR      60  29  30 SW26G33   29.77F
SCHRIEVER AFB  FAIR      61  30  31 W29G36    29.77F
CHEYENNE MTN   FAIR      57  31  37 SE20G31   29.74S
ELLICOTT         N/A    N/A N/A N/A W31G47    29.75F
FALCON         FAIR      60  28  29 SW23G29   29.79F
FORT CARSON    FAIR      62  33  34 SW33G40   29.76F
LIMON          FAIR      66  31  27 W24G30    29.68F
MONUMENT HILL  FAIR      55  32  41 W24G32    29.79S
CANON CITY     PTSUNNY   63  36  36 W21G29    29.77S
WALSENBURG     FAIR      63  34  34 SW32G43   29.84F
TRINIDAD       FAIR      67  33  28 W33G51    29.80S
$$

COZ042>045-048>051-090-091-171800-
...NORTHEAST COLORADO...

CITY           SKY/WX    TMP DP  RH WIND       PRES   REMARKS
GREELEY ARPT   FAIR      64  36  35 W12       29.64F
AKRON          FAIR      64  28  25 NW16      29.66F
BURLINGTON     FAIR      69  33  26 W17G26    29.65F
WRAY           NOT AVBL
YUMA           FAIR      68  30  24 W12       29.64S
STERLING       FAIR      46  32  57 NE12G18   29.67S
HOLYOKE        FAIR      48  32  53 N16       29.69R
FORT MORGAN    FAIR      58  29  33 NE12      29.67F
$$

COZ086-089-092>099-171800-
...SOUTHEAST COLORADO...

CITY           SKY/WX    TMP DP  RH WIND       PRES   REMARKS
PUEBLO         FAIR      69  34  27 W12       29.73F
LA JUNTA       FAIR      74  32  21 W26G37    29.68F
LAMAR          FAIR      71  32  23 W21G29    29.66F
SPRINGFIELD      N/A     68  33  27 SW13      29.74S
$$




USA.gov is the U.S. government's official web portal to all federal, state and local government web resources and services.